This demonstration page uses our WeatherBlox Daily Observations layout. Learn more.

Left ArrowRight Arrow

34.02893, -84.19858

Hourly Observations for January 19, 2018

Temp ( °F °C ) Dew Point ( °F °C ) Humidity (%) Winds ( mph kmh ) Pressure ( in mb ) Visibility ( mi km ) Precip ( " mm )
12:53 am 00:53 Clear 28 -2.2 11 -11.7 49 49 W 5 7 30.35 1028 10 16 0.00 0.00
1:53 am 01:53 Clear 29 -1.7 11 -11.7 47 47 NW 5 7 30.34 1027 10 16 0.00 0.00
2:53 am 02:53 Clear 27 -2.8 11 -11.7 51 51 WNW 3 6 30.33 1027 10 16 0.00 0.00
3:53 am 03:53 Clear 26 -3.3 12 -11.1 55 55 W 7 11 30.33 1027 10 16 0.00 0.00
4:53 am 04:53 Clear 25 -3.9 12 -11.1 58 58 W 6 9 30.34 1027 10 16 0.00 0.00
5:53 am 05:53 Clear 26 -3.3 12 -11.1 55 55 W 5 7 30.33 1027 10 16 0.00 0.00
6:53 am 06:53 Clear 25 -3.9 12 -11.1 58 58 W 7 11 30.35 1028 10 16 0.00 0.00
7:53 am 07:53 Sunny 26 -3.3 11 -11.7 53 53 Calm 30.35 1028 10 16 0.00 0.00
8:53 am 08:53 Sunny 30 -1.1 12 -11.1 47 47 WNW 8 13 30.36 1028 10 16 0.00 0.00
9:53 am 09:53 Sunny 34 1.1 12 -11.1 40 40 WNW 10 17 30.37 1028 10 16 0.00 0.00
10:53 am 10:53 Sunny 40 4.4 10 -12.2 29 29 WNW 6 9 30.37 1028 10 16 0.00 0.00
11:53 am 11:53 Sunny 45 7.2 8 -13.3 22 22 WNW 9 15 30.35 1028 10 16 0.00 0.00
12:53 pm 12:53 Sunny 47 8.3 7 -13.9 19 19 W 8 13 30.31 1026 10 16 0.00 0.00
1:53 pm 13:53 Sunny 49 9.4 5 -15 16 16 VRB 5 7 30.28 1025 10 16 0.00 0.00
2:53 pm 14:53 Sunny 50 10 5 -15 16 16 WNW 7 11 30.27 1025 10 16 0.00 0.00
3:53 pm 15:53 Sunny 51 10.6 3 -16.1 14 14 WNW 8 13 30.27 1025 10 16 0.00 0.00
4:53 pm 16:53 Sunny 50 10 5 -15 16 16 W 7 11 30.26 1025 10 16 0.00 0.00
5:53 pm 17:53 Sunny 47 8.3 6 -14.4 19 19 W 5 7 30.25 1025 10 16 0.00 0.00
6:53 pm 18:53 Clear 37 2.8 13 -10.6 37 37 N 5 7 30.26 1025 10 16 0.00 0.00
7:53 pm 19:53 Clear 38 3.3 12 -11.1 34 34 Calm 30.27 1025 10 16 0.00 0.00
8:53 pm 20:53 Clear 31 -0.6 15 -9.4 52 52 Calm 30.28 1025 10 16 0.00 0.00
9:53 pm 21:53 Clear 30 -1.1 16 -8.9 56 56 Calm 30.29 1026 10 16 0.00 0.00
10:53 pm 22:53 Clear 30 -1.1 15 -9.4 54 54 Calm 30.29 1026 10 16 0.00 0.00
11:53 pm 23:53 Clear 28 -2.2 16 -8.9 60 60 Calm 30.28 1026 10 16 0.00 0.00

Powered by AerisWeather